Location: Unspecified
(42.1900°N, 71.3291°W)
Time: 21:05:55
(UTC-04:00)

Okean 3 - Visible Passes

Search period start: 20 May 2018 00:00
Search period end: 30 May 2018 00:00
Orbit: 577 x 602 km, 82.5° (Epoch: 20 May)

Date Brightness Start Highest point End Pass type
(mag) Time Alt. Az. Time Alt. Az. Time Alt. Az.
20 May 5.6 21:51:03 10° SW 21:54:44 27° WNW 21:58:25 10° NNW visible
21 May 6.2 21:59:52 10° WSW 22:02:57 19° WNW 22:06:02 10° NNW visible
22 May 3.6 20:29:24 10° S 20:33:36 55° E 20:37:47 10° NNE visible
22 May 6.5 22:09:09 10° W 22:11:12 13° WNW 22:13:16 10° NW visible
23 May 3.5 20:37:22 10° S 20:41:39 84° E 20:45:57 10° N visible
24 May 4.0 20:45:29 10° SSW 20:49:44 64° W 20:54:00 10° N visible
25 May 4.9 20:53:47 10° SSW 20:57:51 42° WNW 21:01:57 10° N visible
26 May 5.7 21:02:18 10° SW 21:06:02 29° WNW 21:09:46 10° NNW visible
27 May 6.4 21:11:04 10° WSW 21:14:14 20° WNW 21:17:24 10° NNW visible
28 May 6.6 21:20:16 10° W 21:22:29 14° WNW 21:24:43 10° NW visible
